sat.trackr.live / text

‹ back to catalog

STARLINK-36409

NORAD 67406 · 2026-005C

PAYLOAD ACTIVE UNKNOWN

§ Identity

Operator
Country
US
Launch date
2026-01-12
Launch site
AFETR
Launch vehicle
Mass (kg)
RCS (m²)

Purposes: comms

External: N2YO · Heavens-Above · Gunter

§ Orbital elements

Epoch: 2026-09-19T14:49:05.235744Z

Period
94.27 min
Inclination
43.0015°
Eccentricity
0.0001049
Mean motion
15.27583729 rev/d
Perigee alt
482.3 km
Apogee alt
483.8 km
Semi-major
6,861.2 km
B*
3.6549e-4
RAAN
222.9267°
Arg perigee
301.4800°
Mean anomaly
58.5949°
Rev number
3,835

§ Raw data

STARLINK-364091 67406U 26005C   26262.61742171  .00009810  00000+0  36549-3 0  99902 67406  43.0015 222.9267 0001049 301.4800  58.5949 15.27583729 38356

JSON: /api/v1/satellites/67406 · /tle

For live sub-satellite position, see the globe view (requires WebGL).

§ Visibility from observer

Set your observer location to see the next 7 days of passes ≥ 10°. The values pass through the URL so the page stays shareable.

No JS? Fill the form by hand. The geolocation button needs JavaScript.